Погода в Гяндже

Погода в Гяндже : погода сейчас, прогноз погоды и архив. Всё, что Вы хотите узнать о погоде в Гяндже!

Поиск расширенной информации на нашем сайте:

Другие новости

Новости СМИ2

Главная страница сайта

Новости сайта

03.07.2017

Напоминаем, что на нашем специализированном сайте Метеоцентр.Азия вы можете получить высокодетализированные автоматические прогнозы погоды по пунктам России, СНГ и мира в авиационном формате (включающие направление и скорость ветра, видимость, явления погоды, количество и форму облачности, нижнюю и верхнюю границу облачности).

Рекомендуем: Высказывания Мастеров восточных единоборств.

Погода в Гяндже - сегодня

Время (UTC), дата Ветер
(°,м/с) 
Видим.   Явления Облачность Т
(°С)
Тd
(°С)
f(%) Тe
(°С)
Pmin
(гПа)
dP
(гПа)
Po
(мм)
O2
(г/м3)
Тmin Tmax R s Состояние
почвы
12 11.12.17 320 (СЗ) 20000 м    5/0 средняя 
[Ac trans]
+11.7 -3 36 +10  1020.9  -0.8  738  285           
15 11.12.17 320 (СЗ) 20000 м    ясно 
+10.3 -1.4 44 +11  1022.3  1.4  740  287           
18 11.12.17 180 (Ю) 10 км    ясно 
+5 -0.3 69 +6  1026.3  743  294    +11.7       
21 11.12.17 180 (Ю) 10 км    ясно 
+1.2 -1.7 81 +2  1029.4  3.1  743  298           
00 12.12.17 200 (Ю) 10 км    ясно 
+1.2 -2 79 +2  1030.2  0.8  744  299           
03 12.12.17 290 (З) 10 км    ясно 
-0.8 -2.6 88 1030.8  0.6  744  301           
06 12.12.17 тихо ()   20000 м    3/0 средняя 
[Ac cuf]
+3.2 -1.6 71 +3  1031.4  0.6  744  297  -1.1        сухая 
09 12.12.17 320 (СЗ) 20000 м    3/0 средняя, верхняя 
[Ac cast|Ci fib]
+7.2 +1.9 69 +8  1030.5  -0.9  743  292           
12 12.12.17 320 (СЗ) 20000 м    1/0 верхняя 
[Ci fib]
+9.3 +2.1 61 +10  1028  -2.5  742  289           
15 12.12.17 270 (З) 10 км    ясно 
+4.4 +1.6 82 +5  1028.1  0.1  742  294           
18 12.12.17 тихо ()   10 км    ясно 
+2.8 -0.2 81 +3  1028.6  0.5  743  296    +10.3       
21 12.12.17 тихо ()   10 км    ясно 
+1.5 -0.7 85 +2  1029.2  0.6  743  298           
00 13.12.17 тихо ()   10 км    ясно 
+1.2 +0 92 +1  1029.1  -0.1  743  298           
03 13.12.17 тихо ()   10 км    ясно 
+2.2 -0.6 82 +2  1028.7  -0.4  742  297           
06 13.12.17 тихо ()   10 км    6/0 средняя 
[Ac trans]
+2.7 -1.5 74 +3  1029  0.3  743  297  +1.2        сухая 
09 13.12.17 тихо ()   10 км    3/3 1000 м 
[Cu med, cong]
+7.2 +1.9 69 +7  1028.2  -0.8  742  291           
12 13.12.17 160 (Ю) 10 км    5/5 1000 м 
[Cu med, cong]
+6.7 +1.8 71 +8  1026.7  -1.5  741  291           
15 13.12.17 250 (З) 10 км    8/8 1000 м 
[Sc]
+5.4 +1.6 76 +6  1026.8  0.1  742  293           
18 13.12.17 140 (ЮВ) 20000 м    10/10 1000 м 
[Sc]
+5.2 +1.4 76 +6  1027.3  0.5  742  293    +7.2       
21 13.12.17 тихо ()   20000 м    10/10 1000 м 
[Sc]
+5.4 +1.6 76 +5  1027  -0.3  741  293           
00 14.12.17 тихо ()   20000 м    10/10 1000 м 
[Sc]
+5 +1.2 76 +5  1026.6  -0.4  741  293           
03 14.12.17 тихо ()   20000 м    10/10 1000 м 
[Sc]
+5.2 +0.3 71 +5  1025.8  -0.8  740  293           
06 14.12.17 320 (СЗ) 4000 м    10/10 600 м 
[St]
+5.3 +1.2 75 +6  1025.9  0.1  740  292  +4.9        сухая 
09 14.12.17 тихо ()   4000 м    10/10 600 м 
[St]
+6.5 +0.7 66 +7  1025.7  -0.2  740  291           
12 14.12.17 320 (СЗ) 4000 м    10/10 600 м 
[St]
+6.5 +0.7 66 +7  1024.1  -1.6  739  291           
Время (UTC), дата Ветер
(°,м/с) 
Видим.   Явления Облачность Т
(°С)
Тd
(°С)
f(%) Тe
(°С)
Pmin
(гПа)
dP
(гПа)
Po
(мм)
O2
(г/м3)
Тmin Tmax R s Состояние
почвы

Для получения пояснительной информации подведите курсор к названию столбца.

ПОГОДА в Гяндже - архив

Всё, что Вы хотите узнать о погоде в Гяндже - удобно и подробно!

Выберите нужную дату (начиная с 1 января 2015* года) и нажмите кнопку "Найти".
Будут отображены архивные сводки погоды по пункту Гянджа, начиная с указанной даты.


Отображать данные в формате CSV (для использования в таблицах Excel)


Внимание! Наш архив погоды предназначен исключительно для личного некоммерческого использования в познавательных целях. Если Вам необходимы официальные справки о состоянии погоды (для производственных, юридических, коммерческих и т.п. целей), обращайтесь в органы Росгидромета.

*Примечание: данная дата относится к архиву по метеостанциям СССР (Россия, СНГ, Балтия).
Архив по метеостанциям Зарубежной Европы и Азии (кроме Китая) хранится 10 дней, по другим регионам земного шара (Китай, Африка, Америка, Австралия, Океания) - 1 день.

Гянджа - район местоположения метеостанции


Название, широта, долгота, высота метеостанции:
Гянджа (город) 40.7°ш. 46.4°д. 311 м над ур. моря [Азербайджан]

Дополнительная информация

В oтличие oт бoльшинства пoгoдных сайтoв мы публикуем пoдрoбную метеoинфoрмацию в детальнoм прoфессиoнальнoм фoрмате.

Характеристики температуры и влажнoсти вoздуха измеряются на высoте 2 м в тени вдали oт зданий и деревьев.
Скoрoсть ветра измеряется на высoте 10 м (на урoвне рoста челoвека скoрoсть ветра ниже в 1.5-2 раза). Если метеoстанция нахoдится в гoрoде или в лесу, тo скoрoсть ветра занижена на 2-4 м/с пo сравнению с oткрытым местoм. Скoрoсть ветра над акватoриями крупных рек и oзёр, а также на вершинах хoлмoв на 2-5 м/с выше, чем в oбычных услoвиях.
Атмoсфернoе давление в разных тoчках местнoсти мoжет значительнo oтличаться oт давления на метеoстанции, в зависимoсти oт услoвий рельефа (при пoдъёме на 10 м давление пoнижается примернo на 1 мм рт.ст.).